This is the latest recevied weather packets stored in our database for station/object N5PA. If no packets are shown the sender has not sent any weather packets the latest 10 day(s).
| Time | Temp. | Humidity | Pressure | Rain* | Wind** | Luminosity | Snow |
|---|---|---|---|---|---|---|---|
| 1777493109 | 25.56° C | 71% | 1010.9 hPa | 0 mm | - | 1009 W/m² | - |
| 1777492808 | 25.56° C | 71% | 1010.9 hPa | 0 mm | - | 1009 W/m² | - |
| 1777492508 | 26.11° C | 71% | 1011.2 hPa | 0 mm | - | 998 W/m² | - |
| 1777492208 | 26.11° C | 70% | 1011.6 hPa | 0 mm | - | 995 W/m² | - |
| 1777491909 | 26.11° C | 70% | 1011.7 hPa | 0 mm | - | 995 W/m² | - |
| 1777491608 | 26.11° C | 70% | 1011.7 hPa | 0 mm | - | 993 W/m² | - |
| 1777491308 | 26.11° C | 69% | 1011.8 hPa | 0 mm | - | 993 W/m² | - |
| 1777491008 | 26.11° C | 69% | 1011.9 hPa | 0 mm | - | 990 W/m² | - |
| 1777490708 | 26.67° C | 68% | 1011.7 hPa | 0 mm | - | 993 W/m² | - |
| 1777490408 | 26.67° C | 68% | 1011.7 hPa | 0 mm | - | 990 W/m² | - |
| 1777490109 | 26.67° C | 68% | 1011.9 hPa | 0 mm | - | 988 W/m² | - |
| 1777489808 | 26.67° C | 67% | 1012 hPa | 0 mm | - | 986 W/m² | - |
| 1777489509 | 26.67° C | 68% | 1012.1 hPa | 0 mm | - | 990 W/m² | - |
| 1777489207 | 27.22° C | 67% | 1012 hPa | 0 mm | - | 991 W/m² | - |
| 1777488907 | 27.22° C | 67% | 1012.1 hPa | 0 mm | - | 984 W/m² | - |
| 1777488609 | 27.22° C | 67% | 1012.4 hPa | 0 mm | - | 986 W/m² | - |
| 1777488309 | 27.22° C | 66% | 1012.4 hPa | 0 mm | - | 986 W/m² | - |
| 1777488008 | 27.22° C | 65% | 1012.6 hPa | 0 mm | - | 984 W/m² | - |
| 1777487708 | 27.78° C | 65% | 1012.7 hPa | 0 mm | - | 990 W/m² | - |
| 1777487408 | 27.78° C | 64% | 1012.6 hPa | 0 mm | - | 986 W/m² | - |
| 1777487108 | 27.78° C | 64% | 1012.6 hPa | 0 mm | - | 986 W/m² | - |
| 1777486808 | 28.33° C | 64% | 1012.7 hPa | 0 mm | - | 979 W/m² | - |
| 1777486507 | 28.33° C | 63% | 1012.9 hPa | 0 mm | - | 979 W/m² | - |
| 1777486209 | 28.33° C | 64% | 1013 hPa | 0 mm | - | 977 W/m² | - |
| 1777485907 | 28.89° C | 63% | 1013.1 hPa | 0 mm | - | 976 W/m² | - |
* Rain latest hour (hover to see other rain measurements)
** Current wind speed in m/s (hover to see current wind gust speed)